Probability
0 0 0 0 0 0 0 0 0 0 0 0 0 0 0 0 0 1 2 4 6 7 7 8 9 10 11 12 13 11 9 7 4 4 5 5 4 3 2 1 0 0 0 0 0 0 0 0 0
0 0 0 0 0 0 0 0 0 0 0 0 0 0 0 0 0 1 3 5 7 8 8 9 11 11 11 13 13 11 9 8 7 5 5 5 4 3 3 2 1 0 0 0 0 0 0 0 0
0 0 0 0 0 0 0 0 0 0 0 0 0 0 0 0 0 1 3 6 7 8 8 11 14 14 13 14 14 12 10 9 9 7 6 5 3 3 3 2 1 1 1 1 0 0 0 0 0
0 0 0 0 0 0 0 0 0 0 0 0 0 0 0 0 0 1 3 5 6 6 7 10 14 15 15 16 16 14 12 10 9 8 7 5 3 2 2 1 1 1 2 2 1 0 0 0 0
0 0 0 0 0 0 0 0 0 0 0 0 0 0 0 0 1 2 3 4 4 4 5 8 11 13 14 14 15 15 14 11 9 9 8 6 4 2 1 1 1 1 1 1 1 1 1 1 0
0 0 0 0 0 0 0 0 0 0 0 0 0 0 0 0 1 2 3 3 3 3 5 7 9 10 11 11 12 13 13 11 10 9 8 6 5 3 2 1 1 1 1 0 0 1 1 1 1
0 0 0 0 0 0 0 0 0 0 0 0 0 0 0 0 0 1 3 3 3 4 5 7 8 8 9 9 10 10 10 10 10 9 7 6 5 2 1 1 1 2 2 1 0 0 1 1 1
0 0 0 0 0 0 0 0 0 0 0 0 0 0 0 0 0 2 4 4 4 5 6 7 8 7 7 8 9 9 9 9 8 7 6 6 4 1 0 0 1 1 2 2 1 1 0 0 1
0 0 0 0 0 0 0 0 0 0 0 0 0 0 0 0 1 3 5 5 5 6 7 8 8 7 7 7 7 7 7 6 6 5 4 4 3 1 0 0 0 0 1 1 1 1 0 0 0
0 0 0 0 0 0 0 0 0 0 0 0 0 1 1 1 2 3 4 4 4 6 7 8 9 9 8 7 7 6 5 4 4 4 3 3 2 1 0 0 0 0 0 0 1 1 0 0 0
0 0 0 0 0 0 0 0 0 0 0 0 0 1 2 1 1 3 3 2 2 3 6 7 9 9 9 9 8 7 5 3 3 3 3 3 2 1 0 0 0 0 0 0 0 0 0 0 0
0 0 0 0 0 0 0 0 0 0 0 0 0 1 1 0 1 2 2 2 1 1 3 6 7 8 9 10 10 8 5 4 3 3 3 3 1 0 0 0 0 0 0 0 0 0 0 0 0
0 0 0 0 0 0 0 0 0 0 0 0 0 0 1 1 0 1 2 3 2 1 1 3 5 6 8 9 9 7 4 3 3 3 3 2 1 0 0 0 0 0 0 0 0 0 0 0 0
0 0 0 0 0 0 0 0 0 0 0 0 1 1 2 1 0 1 2 3 3 1 1 2 4 5 6 7 8 7 4 3 3 3 3 2 1 0 0 0 0 0 0 0 0 0 0 0 0
0 0 0 0 0 0 0 0 0 0 0 0 1 3 3 2 0 0 1 3 3 3 2 1 2 4 6 7 7 7 5 3 3 3 4 3 2 1 1 0 0 0 0 0 0 0 0 0 0
0 0 0 0 0 0 0 0 0 0 0 0 1 3 4 2 0 0 1 2 3 3 3 1 1 3 6 7 7 7 5 4 3 4 5 5 3 2 2 1 0 0 0 0 0 0 0 0 0
0 0 0 0 0 0 0 0 0 0 0 0 1 2 3 1 0 0 1 2 4 4 3 2 1 3 5 7 8 7 6 4 3 3 4 5 4 3 3 1 1 0 0 0 0 0 0 0 0
0 0 0 0 0 0 0 0 0 0 0 0 0 1 2 1 0 0 0 2 4 5 4 3 1 2 4 6 8 8 8 7 5 4 4 4 3 3 3 3 2 1 0 0 0 0 0 0 0
0 0 0 0 0 0 0 0 0 0 0 0 0 1 2 2 1 0 1 2 4 4 4 3 2 1 3 6 7 8 9 8 8 6 5 4 3 3 3 2 2 1 0 0 0 0 0 0 0
0 0 0 0 0 0 0 0 0 0 0 0 0 1 2 3 2 1 1 1 2 3 3 3 2 1 2 5 6 7 7 7 8 8 6 5 4 3 2 2 2 1 1 0 0 0 0 0 0
0 0 0 0 0 0 0 0 0 0 0 0 0 0 1 2 2 1 0 0 1 2 3 3 3 1 1 2 4 5 5 5 5 6 7 5 3 3 3 2 2 2 2 1 0 0 0 0 0
0 0 0 0 0 0 0 0 0 0 0 0 0 0 0 1 2 1 0 0 1 2 3 3 3 2 1 0 1 2 3 3 3 4 5 4 3 3 3 3 3 3 3 2 1 0 0 0 0
0 0 0 0 0 0 0 0 0 0 0 0 0 0 0 0 1 1 0 0 1 3 3 3 3 3 1 0 0 0 1 1 2 3 4 3 3 3 3 3 3 3 3 2 1 0 0 0 0
0 0 0 0 0 0 0 0 0 0 0 0 0 0 0 0 0 0 0 1 2 3 3 3 3 3 2 1 0 0 0 0 1 2 3 3 3 3 3 3 3 3 3 2 1 0 0 0 0
0 0 0 0 0 0 0 0 0 0 0 0 0 0 0 0 1 1 0 1 3 3 3 3 3 3 3 2 1 0 0 0 0 1 2 3 3 3 3 3 3 3 2 2 2 1 1 0 0
0 0 0 0 0 0 0 0 0 0 0 0 0 0 0 0 1 2 2 2 3 3 3 3 3 3 3 3 1 1 0 0 0 0 1 2 2 2 2 2 2 2 1 1 2 2 1 0 0
0 0 0 0 0 0 0 0 0 0 0 0 0 0 0 0 1 2 2 3 3 3 3 3 3 3 3 3 2 2 1 0 0 0 0 1 1 1 1 1 1 1 0 0 1 1 1 0 0
0 0 0 0 0 0 0 0 0 0 0 0 0 0 0 0 0 1 1 2 2 2 2 2 2 3 3 2 2 2 1 0 0 0 0 0 0 0 0 0 0 0 0 0 0 0 0 0 0
0 0 0 0 0 0 0 0 0 0 0 0 0 0 0 0 0 0 0 1 1 1 1 0 1 2 2 2 1 1 0 0 0 0 0 0 0 0 0 0 0 0 0 0 0 0 0 0 0
0 0 0 0 0 0 0 0 0 0 0 0 0 0 0 0 0 0 0 0 0 0 0 0 0 1 1 1 0 0 0 0 0 0 0 0 0 0 0 0 0 0 0 0 0 0 0 0 0
Wind_Speed
8 5 2 4 6 5 1 4 2 0 2 1 3 7 8 5 4 5 1 4 6 5 5 7 9 10 10 11 11 10 11 10 10 11 11 11 10 10 10 10 11 11 11 11 11 11 11 11 11
3 2 4 5 5 2 3 3 2 2 4 4 4 5 6 5 3 5 3 3 6 5 5 6 10 10 10 11 10 10 10 10 10 10 10 10 10 10 10 10 10 10 10 10 10 10 9 9 9
3 1 4 4 3 5 4 3 4 1 2 3 4 5 4 3 2 2 3 6 7 6 4 6 10 10 10 10 10 10 10 10 10 10 9 9 9 9 9 9 9 9 9 9 9 8 8 8 8
3 4 5 4 3 5 4 3 2 2 3 4 5 5 3 2 1 3 6 7 8 6 5 6 10 9 9 10 10 9 9 9 9 9 8 8 8 8 8 8 8 8 7 7 7 7 7 7 7
4 4 3 1 4 3 2 2 1 2 2 3 4 5 3 3 4 7 8 8 8 6 5 6 9 9 9 9 10 9 9 9 9 9 8 8 8 7 7 7 7 7 7 6 6 6 6 5 5
4 4 3 4 5 2 2 2 1 2 2 2 5 5 2 1 5 6 7 7 7 7 5 6 9 9 9 9 9 9 9 9 9 9 8 8 8 8 7 7 6 6 6 6 5 4 4 4 4
4 3 4 5 4 3 3 0 1 1 2 1 4 6 3 1 3 6 7 7 6 6 5 5 5 6 8 8 8 8 8 8 9 8 8 8 8 7 7 7 6 6 5 5 4 4 3 3 3
4 4 2 3 4 4 2 1 1 2 2 1 3 7 5 4 4 7 8 7 6 5 5 5 4 4 4 5 7 8 8 8 8 8 7 7 7 7 7 6 6 6 5 5 4 3 3 3 2
4 3 3 4 5 4 1 2 2 2 4 3 3 3 4 7 7 8 7 6 5 5 4 4 4 4 4 4 5 6 7 7 7 6 7 6 3 3 4 4 5 5 5 4 4 4 3 3 3
4 3 5 3 3 3 1 2 2 3 3 3 4 4 7 8 8 8 7 6 5 4 3 3 4 4 4 3 3 2 3 3 3 3 3 3 3 3 3 4 5 5 4 4 4 4 4 3 2
3 5 3 2 1 1 1 1 1 5 2 3 6 7 7 7 7 7 6 5 4 4 3 3 3 4 3 3 3 2 2 2 2 2 2 2 2 2 2 1 2 2 3 2 3 3 2 2 1
2 1 2 1 0 1 1 2 2 2 3 4 7 9 8 8 7 6 6 5 4 4 3 3 3 3 3 3 2 2 2 1 1 1 2 2 2 2 1 1 1 1 1 1 2 1 2 2 2
2 1 1 0 2 1 2 1 2 2 2 4 6 8 8 7 6 4 4 4 4 4 3 3 4 4 3 3 2 2 1 1 1 1 1 2 2 1 1 1 1 1 1 1 1 1 2 2 2
2 1 0 0 0 1 2 2 2 3 3 5 7 7 7 7 6 5 5 4 4 4 3 3 4 3 3 3 2 2 2 1 1 1 1 2 1 1 1 1 1 1 1 1 1 1 1 1 1
2 1 2 2 2 2 3 3 5 5 5 6 6 6 5 5 5 5 5 5 4 4 3 3 4 3 4 3 3 2 2 2 1 1 1 1 1 1 1 0 0 1 1 1 1 1 1 1 2
2 2 2 3 3 3 5 7 4 5 7 7 6 5 5 4 5 5 4 4 3 4 3 3 3 3 3 3 3 2 2 2 1 1 1 1 1 1 1 1 0 1 1 1 1 1 1 2 2
1 3 4 3 3 3 5 6 4 5 8 8 7 7 6 5 4 3 4 4 4 4 4 3 3 3 3 3 2 2 2 2 1 1 0 0 1 1 1 0 0 0 1 1 1 1 1 1 2
5 4 3 4 3 3 4 6 5 4 7 8 7 7 6 7 6 5 4 4 4 4 4 3 3 3 3 2 2 2 2 1 1 1 0 0 0 1 1 0 0 1 1 1 1 1 1 1 2
4 4 3 4 1 2 5 7 7 5 5 7 7 7 7 7 5 4 4 4 4 4 4 4 3 2 2 2 2 2 1 1 0 0 1 1 0 0 1 0 0 0 0 1 0 0 1 2 1
2 2 2 2 1 1 4 8 7 6 7 8 9 9 8 6 5 5 4 4 4 4 3 3 3 2 2 2 1 1 1 1 1 0 1 1 1 0 0 1 0 0 0 1 1 1 0 1 1
4 5 4 3 2 2 1 6 5 4 4 5 6 7 7 9 9 7 6 5 4 4 3 3 3 3 2 2 2 2 2 1 1 1 1 1 1 1 0 0 1 1 1 1 1 1 1 1 2
5 3 4 3 2 3 1 5 6 4 3 5 6 6 6 6 7 6 6 5 5 4 3 3 3 2 2 2 3 3 2 1 1 1 1 1 1 1 1 0 0 0 0 1 1 1 1 1 2
4 1 2 2 3 2 2 3 8 2 4 6 6 6 6 6 6 7 7 7 5 4 3 3 3 3 2 2 2 2 1 1 0 0 1 1 1 2 1 1 0 1 1 1 1 1 1 1 2
3 3 3 3 2 5 7 6 7 5 7 6 6 5 5 5 5 5 5 5 4 4 3 3 3 2 2 2 2 2 2 1 1 0 0 1 1 1 2 1 1 1 1 1 1 1 2 2 2
3 4 2 1 2 7 4 5 9 6 5 6 6 5 4 5 5 5 5 5 5 4 4 3 3 2 2 2 2 1 1 2 2 1 1 1 1 1 2 1 1 2 2 2 1 1 2 2 2
4 6 6 6 5 4 2 7 7 4 3 2 3 3 3 4 4 5 5 5 5 5 4 3 3 2 2 2 1 1 1 1 1 1 1 1 2 2 2 1 2 2 2 2 2 2 2 2 2
4 4 4 4 1 2 5 5 5 2 2 1 2 3 3 3 3 4 4 3 4 4 4 4 4 2 2 1 1 1 1 1 1 1 1 1 1 2 1 1 1 2 2 2 2 2 3 2 2
3 4 4 4 4 4 4 4 4 4 3 1 2 3 2 2 2 2 3 3 3 3 3 3 3 3 2 1 1 1 1 1 1 1 1 1 2 2 1 1 1 1 2 2 2 2 3 2 2
3 3 3 3 3 4 3 6 4 4 4 4 4 4 3 3 3 2 2 2 2 2 2 2 2 2 1 1 1 0 1 1 1 1 1 1 2 2 2 1 1 1 1 1 1 2 2 2 3
3 4 5 5 4 3 3 6 2 1 2 3 3 3 3 3 2 2 2 2 2 2 2 2 2 2 1 1 0 0 0 0 0 0 1 1 1 2 1 1 1 2 2 2 2 2 2 2 3
Wind_Direction
325 335 45 54 57 56 217 253 240 116 73 65 83 94 104 100 120 140 137 121 117 131 145 141 126 119 115 112 107 103 99 97 96 95 96 96 96 96 94 94 92 91 88 85 84 82 80 78 77
331 352 53 61 92 128 255 253 224 218 159 134 75 77 80 80 66 97 91 118 119 121 129 136 126 120 117 115 112 106 102 99 98 97 96 96 96 96 94 93 93 92 92 90 89 86 83 81 80
336 53 80 82 128 183 208 228 197 195 92 103 82 61 88 95 95 107 130 123 105 99 101 125 123 120 118 114 112 109 105 101 98 98 97 95 95 96 93 91 92 93 93 93 91 89 88 85 82
49 48 58 89 195 220 198 210 189 114 56 58 100 73 66 45 129 130 127 115 106 99 94 107 111 115 115 111 109 109 107 103 99 97 98 96 95 96 93 91 87 89 93 95 95 94 92 87 83
62 80 85 161 230 242 230 238 182 94 69 59 95 97 65 1 89 112 118 115 113 109 102 109 106 106 107 108 106 105 105 103 100 97 95 93 92 93 91 89 87 86 87 92 96 97 95 89 87
62 79 123 201 227 240 269 288 64 72 90 82 94 104 101 54 96 110 113 114 115 115 106 108 106 103 101 103 103 102 102 100 99 96 93 90 87 86 85 83 83 84 83 83 84 89 89 85 85
113 120 173 190 205 223 236 253 124 149 106 123 121 108 126 128 115 114 107 105 105 107 104 100 107 105 100 97 94 93 93 94 94 91 88 85 83 83 83 78 76 74 73 73 72 70 72 69 69
129 118 172 200 199 218 231 118 111 124 137 77 98 132 162 178 130 111 102 98 100 95 98 100 98 100 101 100 90 88 85 83 83 84 80 77 75 75 75 69 68 69 67 63 58 50 46 45 43
101 100 196 200 195 210 199 102 27 52 86 51 48 128 148 136 121 110 103 94 99 100 100 106 105 100 102 106 99 92 87 83 78 75 73 71 62 62 65 61 61 61 58 53 43 26 17 15 13
106 169 214 211 188 182 157 126 136 84 70 60 52 68 104 119 123 122 122 122 122 123 119 115 114 111 108 111 102 95 88 86 79 69 71 70 64 57 55 54 52 46 38 32 24 11 8 5 352
142 182 201 256 211 140 128 111 101 121 132 181 161 146 131 126 127 132 134 135 140 144 128 120 119 118 113 106 109 101 94 94 88 81 78 72 67 56 45 40 33 28 23 11 3 1 354 348 343
147 228 200 243 294 101 155 136 91 135 187 175 156 151 143 142 146 152 151 148 144 136 135 130 125 120 116 113 115 114 105 104 94 92 92 87 77 58 40 36 18 18 359 352 353 342 336 341 349
187 212 246 226 62 101 113 135 140 196 171 126 133 141 149 155 156 151 147 147 144 139 142 146 135 128 127 120 119 111 117 118 117 105 104 101 100 89 56 25 16 357 345 333 329 337 339 342 343
188 176 263 281 165 196 153 205 155 212 156 135 143 157 161 161 157 144 144 150 154 151 152 150 140 136 131 125 127 131 126 118 105 105 98 102 107 110 100 40 1 336 319 303 302 315 327 325 329
125 110 318 251 195 191 130 263 222 195 159 154 165 172 168 164 156 160 166 160 162 161 153 146 146 135 134 135 139 131 131 118 107 113 116 107 104 123 129 117 347 323 331 339 343 354 354 342 338
98 122 233 247 174 177 156 240 237 188 168 179 183 185 180 180 174 170 162 152 149 145 142 141 134 132 133 136 138 133 124 119 116 108 117 119 115 121 124 122 288 331 2 4 352 352 354 338 333
123 188 216 245 196 172 184 234 233 199 183 191 191 188 184 186 190 177 156 149 142 140 139 130 124 134 138 134 131 123 116 108 114 97 98 136 115 109 125 160 279 4 29 10 347 347 324 313 319
197 198 207 214 223 175 208 239 242 219 199 202 198 192 188 189 196 183 160 144 134 128 124 119 114 118 134 133 119 112 99 93 90 97 54 126 149 146 154 151 357 28 34 1 359 342 330 291 300
167 175 210 229 244 193 229 247 246 232 218 212 207 198 194 196 193 173 157 138 124 117 118 120 116 117 127 132 136 141 149 150 113 81 39 11 360 177 171 141 109 36 333 292 304 304 326 328 341
187 197 235 281 291 228 253 264 255 229 218 210 201 198 197 192 181 175 162 146 143 143 137 133 132 134 142 150 155 160 164 177 195 174 27 15 357 305 192 153 195 221 263 335 338 4 335 316 347
232 211 213 225 325 345 321 289 262 255 220 217 207 198 194 192 189 183 174 167 157 156 157 151 144 136 136 133 119 97 78 58 35 2 336 345 345 333 315 191 195 225 206 232 264 251 257 271 295
236 231 204 196 173 264 177 274 272 251 243 225 220 202 199 200 190 181 175 171 173 174 159 146 140 122 108 114 131 139 144 177 223 243 263 328 354 336 340 52 92 303 262 258 262 245 243 231 257
211 208 184 186 176 263 235 225 279 271 245 238 226 214 208 198 182 178 175 173 167 160 151 143 133 121 110 104 125 137 146 191 214 319 349 334 354 352 349 347 36 346 302 283 292 282 263 238 239
154 66 40 52 100 244 222 194 269 230 222 228 223 219 208 183 168 167 160 150 147 145 142 139 136 129 125 115 113 128 148 158 138 142 289 311 331 346 344 345 350 325 303 287 277 271 269 256 254
129 116 62 335 243 245 203 195 248 251 236 219 213 213 200 172 163 158 151 153 153 152 153 149 145 139 137 126 119 134 152 154 164 202 241 269 296 301 297 314 304 306 297 291 290 280 281 270 267
192 165 172 196 217 262 210 225 253 280 277 241 195 178 157 157 160 159 161 165 168 165 160 156 157 160 155 145 149 156 154 153 183 195 243 258 264 268 269 281 294 296 298 310 312 292 280 275 269
157 198 176 141 166 251 255 274 299 334 354 34 113 122 149 161 159 162 161 162 168 169 170 168 166 164 161 157 167 165 158 164 194 214 226 260 290 290 284 279 291 300 305 303 301 297 289 278 269
166 151 124 156 183 240 268 254 249 264 254 225 182 178 176 152 146 153 160 164 169 166 163 157 158 164 157 143 176 168 181 194 197 190 224 255 277 290 296 292 291 299 316 319 313 308 307 299 289
161 166 160 164 179 182 239 260 238 223 216 199 202 192 176 171 172 174 169 162 152 133 135 145 152 140 133 142 171 168 219 214 196 201 234 247 265 269 271 293 297 303 307 304 306 306 308 311 309
198 194 168 176 217 194 196 264 305 221 224 190 187 179 171 169 173 169 157 132 120 127 126 129 139 140 156 175 182 229 265 271 233 247 278 289 287 281 278 290 306 315 313 305 298 302 308 300 305